ALAKES messages


fromtotime message
ALAKES KB7DZR-10 07/20 13:53:21z Send another TEMP:76F VOLT:13.53 RX:8103 FCS:38434 CFG:1 PWD:0 DIGI:2300{ag
KB7DZR-10 ALAKES 07/20 13:48:49z Reply cmd info{LX}
ALAKES KB7DZR-10 07/20 04:51:41z Send another TEMP:90F VOLT:14.43 RX:3652 FCS:24994 CFG:1 PWD:0 DIGI:924{ae
KB7DZR-10 ALAKES 07/20 04:51:35z Reply cmd info{LW}
ALAKES KB7DZR-10 07/12 15:20:30z Send another TEMP:86F VOLT:13.98 RX:28942 FCS:25326 CFG:1 PWD:0 DIGI:30773{ad
KB7DZR-10 ALAKES 07/12 15:19:02z Reply cmd info{TM}
ALAKES KB7DZR-10 07/12 14:56:51z Send another TEMP:62 WIND 244 AT 0 GUST 0 *{ac
KB7DZR-10 ALAKES 07/12 14:56:37z Reply cmd wxinfo{TL}
ALAKES KB7DZR-10 07/12 14:56:02z Send another TEMP:84F VOLT:14.23 RX:28682 FCS:24724 CFG:1 PWD:0 DIGI:30683{ab
KB7DZR-10 ALAKES 07/12 14:53:59z Reply cmd info{TK}
ALAKES KB7DZR-10 07/03 17:50:23z Send another TEMP:91F VOLT:14.21 RX:7607 FCS:18493 CFG:1 PWD:0 DIGI:2417{ac
KB7DZR-10 ALAKES 07/03 17:49:51z Reply cmd info{IV}
ALAKES KB7DZR-10 07/03 17:49:01z Send another TEMP:91F VOLT:14.10 RX:7591 FCS:18460 CFG:1 PWD:0 DIGI:2412{ab
ALAKES KB7DZR-10 07/03 05:24:08z Send another TEMP:47 WIND 244 AT 0 GUST 0 BARO 10182 *{ac
KB7DZR-10 ALAKES 07/03 05:24:05z Reply cmd reset{IP}
KB7DZR-10 ALAKES 07/03 05:22:52z Reply cmd wxinfo{IO}
ALAKES KB7DZR-10 07/03 05:22:36z Send another TEMP:91F VOLT:14.25 RX:2683 FCS:5910 CFG:1 PWD:0 DIGI:1047{ab
KB7DZR-10 ALAKES 07/03 05:22:29z Reply cmd info{IN}
KB7DZR-10 ALAKES 06/21 13:11:02z Reply cmd info{UM}
KB7DZR-10 ALAKES 06/11 17:58:31z Reply cmd wxinfo{JY}
ALAKES KB7DZR-10 06/11 17:55:02z Send another TEMP:44 WIND 244 AT 0 GUST 0 BARO 10119 *{ac
ALAKES KB7DZR-10 06/11 17:54:37z Send another TEMP:73F VOLT:13.43 RX:6 FCS:23 CFG:1 PWD:0 DIGI:1{ab
ALAKES EMAIL 06/11 17:54:33z Send another julain@wallowaavalanchecenter.org Low Voltage, AC Power off{aa
KB7DZR-10 ALAKES 06/11 17:54:32z Reply cmd info{JX}
KB7DZR-10 ALAKES 06/11 17:54:23z Reply cmd info{JU}
KB7DZR-10 ALAKES 06/11 17:53:35z Reply cmd reset{JW}
KB7DZR-10 ALAKES 06/11 17:51:35z Reply cmd reset{JV}
ALAKES KB7DZR-10 06/11 17:50:10z Send another TEMP:75F VOLT:13.55 RX:17161 FCS:60256 CFG:1 PWD:0 DIGI:24065{ab
KB7DZR-10 ALAKES 05/31 17:36:00z Reply cmd info{DB}
ALAKES KB7DZR-10 05/31 17:34:59z Send another TEMP:67F VOLT:13.37 RX:26763 FCS:5113 CFG:1 PWD:0 DIGI:35722{ab